• Join FlightAware (Why Join?)
  • Login
  • US Flag 
06:11PM EDT


 

Airport Tracker/Info


-or-


 

Live Flight TrackerFlight Track Log ✈ EJA947 ✈ 13-Apr-2013 ✈ KSLN - KFOK

Flight Track Log - Related Links

Times and Time Zones

All times are in EDT time to prevent confusion due to time zone crossing. See the EJA947 flight status page for this flight to view local times or setup timezone preferences in your user account.

Time Position Orientation Groundspeed Altitude Reporting Facility
EDT Latitude Longitude Course Direction KTS MPH feet Rate Location/Type
04:03PM 38.7764 -97.5667 88° East 237 273 6,100  Level Kansas City Center
04:04PM 38.7961 -97.4647 76° East 290 334 8,200 2,220 Climbing Kansas City Center
04:05PM 38.8186 -97.3475 76° East 322 371 10,800 1,920 Climbing Kansas City Center
04:06PM 38.8444 -97.2097 76° East 390 449 12,200 1,740 Climbing Kansas City Center
04:07PM 39.0083 -96.4129 77° East  Level FlightAware Approximate
04:07PM 38.8725 -97.0653 76° East 401 461 14,500  Level Kansas City Center
04:08PM 38.8958 -96.9381 77° East 405 466 16,400 1,800 Climbing Kansas City Center
04:09PM 38.9236 -96.7917 76° East 418 481 18,300 1,920 Climbing Kansas City Center
04:10PM 38.9439 -96.6408 80° East 426 490 20,400 2,040 Climbing Kansas City Center
04:11PM 38.9633 -96.4722 82° East 443 510 22,500 2,040 Climbing Kansas City Center
04:12PM 38.9869 -96.2958 80° East 450 518 24,600 1,860 Climbing Kansas City Center
04:13PM 39.0081 -96.1369 80° East 467 537 26,400 1,860 Climbing Kansas City Center
04:14PM 39.0325 -95.9472 81° East 482 555 28,500 1,860 Climbing Kansas City Center
04:15PM 39.0542 -95.7806 80° East 493 567 30,300 2,100 Climbing Kansas City Center
04:16PM 39.0806 -95.5828 80° East 501 577 32,800 2,220 Climbing Kansas City Center
04:17PM 39.1033 -95.4064 80° East 500 575 35,000 1,620 Climbing Kansas City Center
04:18PM 39.1264 -95.2283 80° East 505 581 36,200 1,020 Climbing Kansas City Center
04:19PM 39.1464 -95.0469 82° East 524 603 37,100 960 Climbing Kansas City Center
04:20PM 39.1606 -94.8328 85° East 539 620 38,200 900 Climbing Kansas City Center
04:21PM 39.1783 -94.6458 83° East 551 634 39,000 360 Climbing Kansas City Center
04:22PM 39.2042 -94.4253 81° East 558 642 39,000  Level Kansas City Center
04:23PM 39.2275 -94.2328 81° East 567 652 39,000  Level Kansas City Center
04:24PM 39.2500 -94.0394 81° East 567 652 39,000  Level Kansas City Center
04:25PM 39.2756 -93.8128 82° East 569 655 39,000  Level Kansas City Center
04:26PM 39.3006 -93.6019 81° East 573 659 39,000  Level Kansas City Center
04:27PM 39.3222 -93.4036 82° East 565 650 39,000  Level Kansas City Center
04:28PM 39.3467 -93.2103 81° East 557 641 39,000  Level Kansas City Center
04:29PM 39.3650 -93.0103 83° East 564 649 39,000  Level Kansas City Center
04:30PM 39.3864 -92.8083 82° East 571 657 39,000  Level Kansas City Center
04:31PM 39.4119 -92.5711 82° East 566 651 39,000  Level Kansas City Center
04:32PM 39.4311 -92.3753 83° East 561 646 39,000  Level Kansas City Center
04:33PM 39.4511 -92.1778 82° East 560 644 39,000  Level Kansas City Center
04:34PM 39.4714 -91.9756 83° East 566 651 39,000  Level Kansas City Center
04:35PM 39.4911 -91.7750 83° East 569 655 39,000  Level Kansas City Center
04:36PM 39.5117 -91.5356 84° East 566 651 39,000  Level Kansas City Center
04:38PM 39.5311 -91.3278 83° East 567 652 39,000  Level Kansas City Center
04:39PM 39.5500 -91.1222 83° East 571 657 39,000  Level Kansas City Center
04:40PM 39.5683 -90.9150 83° East 575 662 39,000  Level Kansas City Center
04:41PM 39.5875 -90.7083 83° East 577 664 39,000  Level Kansas City Center
04:42PM 39.6050 -90.5008 84° East 577 664 39,000  Level Kansas City Center
04:43PM 39.6222 -90.2928 84° East 578 665 39,000  Level Kansas City Center
04:44PM 39.6389 -90.0844 84° East 579 666 39,000  Level Kansas City Center
04:45PM 39.6567 -89.8756 84° East 580 667 39,000  Level Kansas City Center
04:46PM 39.6756 -89.6231 84° East 583 671 39,000  Level Kansas City Center
04:47PM 39.6917 -89.4122 84° East 585 673 39,000  Level Kansas City Center
04:48PM 39.7061 -89.2058 85° East 588 677 39,000  Level Kansas City Center
04:49PM 39.7225 -88.9947 84° East 590 679 39,000  Level Kansas City Center
04:50PM 39.7372 -88.7811 85° East 594 684 39,000  Level Kansas City Center
04:51PM 39.7508 -88.5686 85° East 594 684 39,000  Level Kansas City Center
04:52PM 39.7689 -88.3122 85° East 595 685 39,000  Level Kansas City Center
04:53PM 39.7836 -88.0931 85° East 595 685 39,000  Level Kansas City Center
04:54PM 39.7936 -87.9225 86° East 595 685 39,000  Level Indianapolis Center
04:55PM 39.8067 -87.7069 85° East 595 685 39,000  Level Indianapolis Center
04:56PM 39.8208 -87.4508 86° East 593 682 39,000  Level Indianapolis Center
04:57PM 39.8336 -87.2328 86° East 598 688 39,000  Level Indianapolis Center
04:58PM 39.8453 -87.0161 86° East 597 687 39,000  Level Indianapolis Center
04:59PM 39.8586 -86.8006 85° East 596 686 39,000 60 Level Indianapolis Center
05:00PM 39.8686 -86.5844 86° East 595 685 39,200 660 Climbing Indianapolis Center
05:01PM 39.8786 -86.3733 86° East 585 673 40,400 840 Climbing Indianapolis Center
05:02PM 39.8892 -86.1672 86° East 572 658 41,000 240 Climbing Indianapolis Center
05:03PM 39.8992 -85.9575 86° East 575 662 41,000  Level Indianapolis Center
05:05PM 39.9158 -85.5289 87° East 593 682 41,000  Level Indianapolis Center
05:06PM 39.9258 -85.2758 87° East 595 685 41,000  Level Indianapolis Center
05:07PM 39.9358 -85.0586 86° East 596 686 41,000  Level Indianapolis Center
05:08PM 39.9439 -84.8414 87° East 597 687 41,000  Level Indianapolis Center
05:09PM 39.9511 -84.6222 87° East 598 688 41,000  Level Indianapolis Center
05:10PM 39.9589 -84.4022 87° East 603 694 41,000  Level Indianapolis Center
05:11PM 39.9653 -84.1847 88° East 600 690 41,000  Level Indianapolis Center
05:12PM 39.9714 -83.9661 88° East 597 687 41,000  Level Indianapolis Center
05:13PM 39.9769 -83.7461 88° East 599 689 41,000  Level Indianapolis Center
05:14PM 39.9836 -83.5231 88° East 600 690 41,000  Level Indianapolis Center
05:15PM 39.9886 -83.2967 88° East 605 696 41,000  Level Indianapolis Center
05:16PM 39.9928 -83.0744 89° East 604 695 41,000  Level Indianapolis Center
05:17PM 39.9969 -82.8536 89° East 602 693 41,000  Level Indianapolis Center
05:18PM 40.0014 -82.6344 88° East 600 690 41,000  Level Indianapolis Center
05:19PM 40.0047 -82.4144 89° East 601 692 41,000  Level Indianapolis Center
05:21PM 40.0075 -82.1944 89° East 601 692 41,000  Level Indianapolis Center
05:22PM 40.0100 -81.9747 89° East 600 690 41,000  Level Indianapolis Center
05:23PM 40.0117 -81.7392 89° East 600 690 41,000  Level Indianapolis Center
05:24PM 40.0136 -81.5197 89° East 602 693 41,000  Level Indianapolis Center
05:25PM 40.0156 -81.3006 89° East 601 692 41,000  Level Indianapolis Center
05:26PM 40.0161 -81.0814 90° East 602 693 41,000  Level Indianapolis Center
05:26PM 40.0186 -80.9192 89° East 590 679 41,000  Level Cleveland Center
05:27PM 40.0358 -80.6997 84° East 590 679 41,000  Level Cleveland Center
05:28PM 40.0714 -80.4856 78° East 595 685 41,000  Level Cleveland Center
05:29PM 40.1022 -80.2736 79° East 595 685 41,000  Level Cleveland Center
05:30PM 40.1347 -80.0564 79° East 600 690 41,000  Level Cleveland Center
05:31PM 40.1692 -79.8578 77° East 610 702 41,000  Level Cleveland Center
05:32PM 40.2008 -79.6453 79° East 605 696 41,000  Level Cleveland Center
05:33PM 40.2322 -79.4272 79° East 605 696 41,000  Level Cleveland Center
05:34PM 40.2650 -79.1900 80° East 600 690 41,000  Level Cleveland Center
05:35PM 40.2956 -78.9717 80° East 600 690 41,000  Level Cleveland Center
05:36PM 40.3172 -78.7533 83° East 605 696 41,000  Level Cleveland Center
05:37PM 40.3158 -78.5517 90° East 599 689 41,000  Level Cleveland Center
05:38PM 40.3139 -78.3339 91° East 599 689 41,000  Level Cleveland Center
05:41PM 40.3122 -77.8078 90° East 609 701 41,000  Level New York Center
05:42PM 40.3603 -77.5947 73° East 609 701 41,000  Level New York Center
05:43PM 40.4694 -77.4364 48° Northeast 565 650 41,000  Level New York Center
05:44PM 40.5953 -77.2708 45° Northeast 571 657 41,000  Level New York Center
05:45PM 40.7142 -77.1178 44° Northeast 582 670 41,000  Level New York Center
05:46PM 40.8306 -76.9667 44° Northeast 582 670 41,000  Level New York Center
05:47PM 40.9192 -76.7825 57° Northeast 589 678 41,000  Level New York Center
05:48PM 40.9858 -76.5767 67° East 589 678 41,000 -600 Level New York Center
05:49PM 41.0519 -76.3703 67° East 600 690 39,900 -1,800 Descending New York Center
05:50PM 41.1222 -76.1558 66° East 618 711 37,500 -2,520 Descending New York Center
05:51PM 41.1847 -75.9706 66° East 625 719 35,000 -3,060 Descending New York Center
05:52PM 41.2378 -75.7539 72° East 625 719 31,500 -3,720 Descending New York Center
05:53PM 41.2217 -75.5375 96° East 599 689 27,600 -3,720 Descending New York Center
05:54PM 41.1619 -75.3625 114° Southeast 529 609 24,200 -2,340 Descending New York Center
05:55PM 41.1000 -75.1819 114° Southeast 529 609 23,000 -600 Descending New York Center
05:56PM 41.0400 -75.0047 114° Southeast 529 609 23,000  Level New York Center
05:57PM 40.9925 -74.8122 108° East 529 609 23,000  Level New York Center
05:58PM 40.9697 -74.6156 99° East 530 610 23,000 -60 Level New York Center
05:59PM 40.9506 -74.4386 98° East 519 597 22,900 -840 Descending New York Center
05:59PM 40.9333 -74.3667 108° East 444 511 21,900 -2,400 Descending New York TRACON
06:00PM 40.9167 -74.2000 97° East 425 489 19,700 -1,140 Descending New York TRACON
06:02PM 40.8906 -73.9964 100° East 383 441 19,000 -1,020 Descending New York Center
06:03PM 40.8017 -73.9675 166° South 278 320 17,000 -2,280 Descending New York Center
06:03PM 40.7667 -73.9667 179° South 301 346 16,000 -2,100 Descending New York TRACON
06:05PM 40.6356 -73.9461 173° South 298 343 13,000 -1,500 Descending New York Center
06:05PM 40.6000 -73.9333 165° South 296 341 13,000 -1,020 Level New York TRACON
06:06PM 40.5333 -73.9333 180° South 285 328 11,700 -1,680 Descending New York TRACON
06:07PM 40.4500 -73.8667 149° Southeast 317 365 9,700 -2,040 Descending New York TRACON
06:08PM 40.3833 -73.8000 143° Southeast 313 360 7,700 -1,860 Descending New York TRACON
06:09PM 40.3167 -73.7167 136° Southeast 301 346 6,000 -1,440 Descending New York TRACON
06:11PM 40.2906 -73.5900 105° East 240 276 4,000 -780 Descending New York Center
06:12PM 40.3381 -73.5211 48° Northeast 234 269 4,000  Level New York Center
06:13PM 40.3919 -73.4389 49° Northeast 260 299 4,000  Level New York Center
06:14PM 40.4353 -73.3669 52° Northeast 274 315 4,000  Level New York Center
06:14PM 40.4500 -73.3333 60° Northeast 277 319 4,000  Level New York TRACON
06:15PM 40.5000 -73.2500 52° Northeast 280 322 4,000  Level New York TRACON
06:16PM 40.5500 -73.1667 52° Northeast 284 327 4,000 -300 Level New York TRACON
06:17PM 40.6000 -73.0833 52° Northeast 280 322 3,400 -480 Descending New York TRACON
06:18PM 40.6333 -73.0167 57° Northeast 265 305 3,100 -300 Descending New York TRACON
06:19PM 40.6667 -72.9000 69° East 278 320 2,800 -720 Descending New York TRACON
06:20PM 40.7000 -72.8167 62° Northeast 270 311 1,600 -660 Descending New York TRACON
06:21PM 40.7333 -72.7333 62° Northeast 260 299 1,500 -60 Descending New York TRACON
06:22PM 40.7833 -72.6833 37° Northeast 231 266 1,500  Level New York TRACON
06:23PM 40.8167 -72.6167 57° Northeast 183 211 1,500  Level New York TRACON
06:24PM 40.8500 -72.5667 49° Northeast 188 216 1,500 -480 Level New York TRACON
06:25PM 40.8667 -72.6000 303° West 151 174 600 -900 Descending New York TRACON